Location: Unspecified
(49.2170°N, 0.0000°E)
Time: 15:39:39
(UTC+00:00)

Tiros 1 despin weight - Pass Details

Date: 23 January 2021
Orbit: 593 x 642 km, 48.2° (Epoch: 07 March)

Event Time Altitude Azimuth Distance (km) Brightness Sun altitude
Rises 13:17:05 0° 185° (S) 2,886 ? 20.0°
Reaches altitude 10° 13:21:48 10° 141° (SE) 1,970 ? 19.7°
Maximum altitude 13:22:14 10° 135° (SE) 1,961 ? 19.7°
Drops below altitude 10° 13:22:41 10° 129° (SE) 1,968 ? 19.7°
Sets 13:27:22 0° 85° (E) 2,862 ? 19.5°
